,,,PA_Meas_PMT16A,,PR_Meas_QMR101_102,,RH_Meas_QMH101,,SR_Meas_QMS101,,TA_Meas_QMH101,,GenWind,,GenWind,
date,time,status,PA,status,PR,status,RH,status,SR,status,TA,status,DirAvg,status,SpdAvg,
2009-05-20, 00:00:04,VALID,1000.94,VALID,0,VALID,95.0269,VALID,0,VALID,23.5646,VALID,223,VALID,0.374609,
2009-05-20, 00:01:04,VALID,1000.95,VALID,0,VALID,95.0422,VALID,0,VALID,23.625,VALID,223,VALID,0,
2009-05-20, 00:02:04,VALID,1000.95,VALID,0,VALID,95.0269,VALID,0,VALID,23.6036,VALID,223,VALID,0.298828,
2009-05-20, 00:03:04,VALID,1000.93,VALID,0,VALID,95.0345,VALID,0,VALID,23.5841,VALID,223,VALID,0.239453,
2009-05-20, 00:04:04,VALID,1000.9,VALID,0,VALID,94.9964,VALID,0,VALID,23.5646,VALID,208,VALID,0.433594,
2009-05-20, 00:05:04,VALID,1000.89,VALID,0,VALID,95.0193,VALID,0,VALID,23.5859,VALID,173,VALID,0.540234,
2009-05-20, 00:06:04,VALID,1000.87,VALID,0,VALID,95.0193,VALID,0,VALID,23.5646,VALID,157,VALID,0.366406,
2009-05-20, 00:07:04,VALID,1000.89,VALID,0,VALID,95.0498,VALID,0,VALID,23.5841,VALID,144,VALID,0.752344,
2009-05-20, 00:08:04,VALID,1000.87,VALID,0,VALID,95.0727,VALID,0,VALID,23.6232,VALID,145,VALID,0.876562,
2009-05-20, 00:09:04,VALID,1000.87,VALID,0,VALID,95.0422,VALID,0,VALID,23.6232,VALID,145,VALID,0.964063,
2009-05-20, 00:10:04,VALID,1000.87,VALID,0,VALID,95.0574,VALID,0,VALID,23.6427,VALID,144,VALID,0.946094,
2009-05-20, 00:11:04,VALID,1000.88,VALID,0,VALID,95.0422,VALID,0,VALID,23.6427,VALID,143,VALID,0.448438,
2009-05-20, 00:12:04,VALID,1000.89,VALID,0,VALID,94.9888,VALID,0,VALID,23.6232,VALID,143,VALID,0.58125,
2009-05-20, 00:13:04,VALID,1000.9,VALID,0,VALID,95.0117,VALID,0,VALID,23.6232,VALID,144,VALID,0.586719,
2009-05-20, 00:14:04,VALID,1000.9,VALID,0,VALID,94.9888,VALID,0,VALID,23.6232,VALID,139,VALID,0.645312,
2009-05-20, 00:15:04,VALID,1000.91,VALID,0,VALID,95.0345,VALID,0,VALID,23.664,VALID,123,VALID,0.808984,
2009-05-20, 00:16:04,VALID,1000.92,VALID,0,VALID,95.0727,VALID,0,VALID,23.703,VALID,117,VALID,0.719531,
2009-05-20, 00:17:04,VALID,1000.92,VALID,0,VALID,95.0269,VALID,0,VALID,23.7012,VALID,98,VALID,0.999609,
2009-05-20, 00:18:04,VALID,1000.94,VALID,0,VALID,95.0727,VALID,0,VALID,23.7402,VALID,101,VALID,0.880078,
2009-05-20, 00:19:04,VALID,1000.94,VALID,0,VALID,95.0269,VALID,0,VALID,23.7402,VALID,100,VALID,1.01172,
2009-05-20, 00:20:04,VALID,1000.9,VALID,0,VALID,95.0193,VALID,0,VALID,23.7597,VALID,103,VALID,0.965234,
2009-05-20, 00:21:04,VALID,1000.92,VALID,0,VALID,94.9964,VALID,0,VALID,23.7597,VALID,99,VALID,1.04023,
2009-05-20, 00:22:04,VALID,1000.92,VALID,0,VALID,94.9811,VALID,0,VALID,23.7597,VALID,108,VALID,0.987109,
2009-05-20, 00:23:04,VALID,1000.92,VALID,0,VALID,94.9583,VALID,0,VALID,23.7793,VALID,110,VALID,0.837109,
2009-05-20, 00:24:04,VALID,1000.89,VALID,0,VALID,94.9659,VALID,0,VALID,23.7402,VALID,121,VALID,0.571094,
2009-05-20, 00:25:04,VALID,1000.88,VALID,0,VALID,94.943,VALID,0,VALID,23.7793,VALID,90,VALID,0.740625,
2009-05-20, 00:26:04,VALID,1000.87,VALID,0,VALID,94.9583,VALID,0,VALID,23.7402,VALID,84,VALID,0.839844,
2009-05-20, 00:27:04,VALID,1000.82,VALID,0,VALID,94.9201,VALID,0,VALID,23.7402,VALID,102,VALID,0.802734,
2009-05-20, 00:28:04,VALID,1000.79,VALID,0,VALID,94.9277,VALID,0,VALID,23.7616,VALID,95,VALID,0.696484,
2009-05-20, 00:29:04,VALID,1000.74,VALID,0,VALID,94.9659,VALID,0,VALID,23.7402,VALID,79,VALID,0.690234,
2009-05-20, 00:30:04,VALID,1000.74,VALID,0,VALID,94.9201,VALID,0,VALID,23.7597,VALID,95,VALID,0.921484,
2009-05-20, 00:31:04,VALID,1000.71,VALID,0,VALID,94.9048,VALID,0,VALID,23.7402,VALID,100,VALID,0.833203,
2009-05-20, 00:32:04,VALID,1000.68,VALID,0,VALID,94.9201,VALID,0,VALID,23.7402,VALID,108,VALID,0.645703,
2009-05-20, 00:33:04,VALID,1000.64,VALID,0,VALID,94.9506,VALID,0,VALID,23.7597,VALID,110,VALID,0.932031,
2009-05-20, 00:34:04,VALID,1000.63,VALID,0.5,VALID,94.882,VALID,0,VALID,23.7207,VALID,115,VALID,1.29336,
2009-05-20, 00:35:04,VALID,1000.63,VALID,0,VALID,94.9125,VALID,0,VALID,23.7402,VALID,118,VALID,1.20117,
2009-05-20, 00:36:04,VALID,1000.55,VALID,0,VALID,94.882,VALID,0,VALID,23.7616,VALID,107,VALID,1.32461,
2009-05-20, 00:37:04,VALID,1000.51,VALID,0,VALID,94.8591,VALID,0,VALID,23.7207,VALID,111,VALID,1.36992,
2009-05-20, 00:38:04,VALID,1000.47,VALID,0,VALID,94.8438,VALID,0,VALID,23.7207,VALID,113,VALID,1.19062,
2009-05-20, 00:39:04,VALID,1000.4,VALID,0,VALID,94.8514,VALID,0,VALID,23.7012,VALID,114,VALID,1.40742,
2009-05-20, 00:40:04,VALID,1000.36,VALID,0,VALID,94.8743,VALID,0,VALID,23.7012,VALID,119,VALID,1.23711,
2009-05-20, 00:41:04,VALID,1000.34,VALID,0,VALID,94.9125,VALID,0,VALID,23.7402,VALID,130,VALID,1.11875,
2009-05-20, 00:42:04,VALID,1000.28,VALID,0,VALID,94.8438,VALID,0,VALID,23.7207,VALID,136,VALID,1.21484,
2009-05-20, 00:43:04,VALID,1000.23,VALID,0,VALID,94.798,VALID,0,VALID,23.6817,VALID,133,VALID,1.14023,
2009-05-20, 00:44:04,VALID,1000.18,VALID,0.5,VALID,94.8743,VALID,0,VALID,23.6622,VALID,140,VALID,1.42383,
2009-05-20, 00:45:04,VALID,1000.16,VALID,0,VALID,94.8972,VALID,0,VALID,23.6817,VALID,144,VALID,1.33008,
2009-05-20, 00:46:04,VALID,1000.12,VALID,0,VALID,94.9277,VALID,0,VALID,23.7012,VALID,144,VALID,1.16523,
2009-05-20, 00:47:04,VALID,1000.09,VALID,0,VALID,94.882,VALID,0,VALID,23.7207,VALID,140,VALID,1.54609,
2009-05-20, 00:48:04,VALID,1000.09,VALID,0,VALID,94.9125,VALID,0,VALID,23.7012,VALID,135,VALID,1.13672,
2009-05-20, 00:49:04,VALID,1000.08,VALID,0,VALID,94.9201,VALID,0,VALID,23.7207,VALID,147,VALID,0.801562,
2009-05-20, 00:50:04,VALID,1000.03,VALID,0,VALID,94.9277,VALID,0,VALID,23.7207,VALID,144,VALID,0.993359,
2009-05-20, 00:51:04,VALID,999.993,VALID,0,VALID,94.9277,VALID,0,VALID,23.7225,VALID,151,VALID,1.10586,
2009-05-20, 00:52:04,VALID,999.948,VALID,0,VALID,94.8972,VALID,0,VALID,23.7012,VALID,141,VALID,1.49609,
2009-05-20, 00:53:04,VALID,999.922,VALID,0,VALID,94.8896,VALID,0,VALID,23.6817,VALID,144,VALID,1.47109,
2009-05-20, 00:54:04,VALID,999.888,VALID,0,VALID,94.9201,VALID,0,VALID,23.7012,VALID,146,VALID,1.51563,
2009-05-20, 00:55:04,VALID,999.866,VALID,0,VALID,94.882,VALID,0,VALID,23.7012,VALID,140,VALID,1.90508,
2009-05-20, 00:56:04,VALID,999.841,VALID,0,VALID,94.8896,VALID,0,VALID,23.6604,VALID,140,VALID,1.89688,
2009-05-20, 00:57:04,VALID,999.816,VALID,0,VALID,94.8972,VALID,0,VALID,23.6817,VALID,144,VALID,1.57578,
2009-05-20, 00:58:04,VALID,999.807,VALID,0,VALID,94.8896,VALID,0,VALID,23.7012,VALID,146,VALID,1.66914,
2009-05-20, 00:59:04,VALID,999.801,VALID,0,VALID,94.8972,VALID,0,VALID,23.6817,VALID,154,VALID,1.3793,
2009-05-20, 01:00:04,VALID,999.781,VALID,0,VALID,94.8743,VALID,0,VALID,23.6817,VALID,150,VALID,1.58359,
2009-05-20, 01:01:04,VALID,999.771,VALID,0,VALID,94.8285,VALID,0,VALID,23.6622,VALID,151,VALID,1.55352,
2009-05-20, 01:02:04,VALID,999.767,VALID,0,VALID,94.8667,VALID,0,VALID,23.6622,VALID,153,VALID,1.34766,
2009-05-20, 01:03:04,VALID,999.791,VALID,0,VALID,94.8743,VALID,0,VALID,23.6817,VALID,160,VALID,0.980859,
2009-05-20, 01:04:04,VALID,999.807,VALID,0,VALID,94.8667,VALID,0,VALID,23.6817,VALID,160,VALID,0.955078,
2009-05-20, 01:05:04,VALID,999.784,VALID,0,VALID,94.8514,VALID,0,VALID,23.6622,VALID,170,VALID,0.713672,
2009-05-20, 01:06:04,VALID,999.802,VALID,0.5,VALID,94.8514,VALID,0,VALID,23.6817,VALID,157,VALID,0.472266,
2009-05-20, 01:07:04,VALID,999.838,VALID,0,VALID,94.8591,VALID,0,VALID,23.6622,VALID,157,VALID,0.483203,
2009-05-20, 01:08:04,VALID,999.833,VALID,0,VALID,94.8667,VALID,0,VALID,23.6817,VALID,188,VALID,0.506641,
2009-05-20, 01:09:04,VALID,999.849,VALID,0,VALID,94.8896,VALID,0,VALID,23.6817,VALID,193,VALID,0.0175781,
2009-05-20, 01:10:04,VALID,999.865,VALID,0,VALID,94.882,VALID,0,VALID,23.7012,VALID,193,VALID,0,
2009-05-20, 01:11:04,VALID,999.902,VALID,0,VALID,94.8972,VALID,0,VALID,23.6817,VALID,193,VALID,0.199219,
2009-05-20, 01:12:04,VALID,999.897,VALID,0,VALID,94.8743,VALID,0,VALID,23.703,VALID,309,VALID,0.621875,
2009-05-20, 01:13:04,VALID,999.923,VALID,0,VALID,94.8667,VALID,0,VALID,23.6622,VALID,357,VALID,0.786719,
2009-05-20, 01:14:04,VALID,999.895,VALID,0,VALID,94.882,VALID,0,VALID,23.6622,VALID,359,VALID,0.939062,
2009-05-20, 01:15:04,VALID,999.926,VALID,0,VALID,94.8591,VALID,0,VALID,23.6622,VALID,359,VALID,0.930859,
2009-05-20, 01:16:04,VALID,999.955,VALID,0,VALID,94.9201,VALID,0,VALID,23.6622,VALID,1,VALID,0.890234,
2009-05-20, 01:17:04,VALID,999.946,VALID,0,VALID,94.9201,VALID,0,VALID,23.703,VALID,1,VALID,0.794531,
2009-05-20, 01:18:04,VALID,999.954,VALID,0,VALID,94.9201,VALID,0,VALID,23.6817,VALID,5,VALID,0.8,
2009-05-20, 01:19:04,VALID,999.942,VALID,0,VALID,94.9354,VALID,0,VALID,23.6817,VALID,18,VALID,0.835547,
2009-05-20, 01:20:04,VALID,999.936,VALID,0,VALID,94.9277,VALID,0,VALID,23.7012,VALID,18,VALID,0.772656,
2009-05-20, 01:21:04,VALID,999.925,VALID,0,VALID,94.9125,VALID,0,VALID,23.7207,VALID,26,VALID,0.813672,
2009-05-20, 01:22:04,VALID,999.974,VALID,0,VALID,94.9201,VALID,0,VALID,23.7012,VALID,32,VALID,0.815234,
2009-05-20, 01:23:04,VALID,999.985,VALID,0,VALID,94.8896,VALID,0,VALID,23.6817,VALID,36,VALID,0.991797,
2009-05-20, 01:24:04,VALID,999.979,VALID,0,VALID,94.8972,VALID,0,VALID,23.6817,VALID,36,VALID,1.01523,
2009-05-20, 01:25:04,VALID,999.995,VALID,0,VALID,94.8743,VALID,0,VALID,23.6622,VALID,36,VALID,0.910547,
2009-05-20, 01:26:04,VALID,999.98,VALID,0,VALID,94.9048,VALID,0,VALID,23.6622,VALID,43,VALID,0.896484,
2009-05-20, 01:27:04,VALID,1000.03,VALID,0,VALID,94.882,VALID,0,VALID,23.6622,VALID,44,VALID,1.00273,
2009-05-20, 01:28:04,VALID,1000.03,VALID,0,VALID,94.9048,VALID,0,VALID,23.6817,VALID,56,VALID,1.08633,
2009-05-20, 01:29:04,VALID,1000.03,VALID,0,VALID,94.8438,VALID,0,VALID,23.6427,VALID,48,VALID,1.17266,
2009-05-20, 01:30:05,VALID,1000.04,VALID,0,VALID,94.8438,VALID,0,VALID,23.6622,VALID,42,VALID,1.12109,
2009-05-20, 01:31:05,VALID,1000.03,VALID,0,VALID,94.8362,VALID,0,VALID,23.6817,VALID,54,VALID,0.728516,
2009-05-20, 01:32:05,VALID,1000.01,VALID,0,VALID,94.8133,VALID,0,VALID,23.6622,VALID,54,VALID,0.678516,
2009-05-20, 01:33:05,VALID,999.996,VALID,0,VALID,94.8285,VALID,0,VALID,23.6817,VALID,51,VALID,0.707812,
2009-05-20, 01:34:05,VALID,999.975,VALID,0,VALID,94.8133,VALID,0,VALID,23.6817,VALID,49,VALID,0.646094,
2009-05-20, 01:35:05,VALID,999.92,VALID,0,VALID,94.7904,VALID,0,VALID,23.6622,VALID,49,VALID,0.236719,
2009-05-20, 01:36:05,VALID,999.846,VALID,0.5,VALID,94.8057,VALID,0,VALID,23.6817,VALID,49,VALID,0,
2009-05-20, 01:37:05,VALID,999.795,VALID,0,VALID,94.8209,VALID,0,VALID,23.6817,VALID,49,VALID,0.158594,
2009-05-20, 01:38:05,VALID,999.81,VALID,0,VALID,94.8133,VALID,0,VALID,23.7012,VALID,49,VALID,0.451172,
2009-05-20, 01:39:05,VALID,999.78,VALID,0,VALID,94.8285,VALID,0,VALID,23.6817,VALID,40,VALID,0.776563,
2009-05-20, 01:40:05,VALID,999.77,VALID,0,VALID,94.8133,VALID,0,VALID,23.7012,VALID,235,VALID,0.347656,
2009-05-20, 01:41:05,VALID,999.748,VALID,0,VALID,94.8285,VALID,0,VALID,23.6799,VALID,230,VALID,0.410156,
2009-05-20, 01:42:05,VALID,999.738,VALID,0,VALID,94.8209,VALID,0,VALID,23.7012,VALID,194,VALID,0.426172,
2009-05-20, 01:43:05,VALID,999.764,VALID,0,VALID,94.8362,VALID,0,VALID,23.6817,VALID,137,VALID,0.5625,
2009-05-20, 01:44:05,VALID,999.785,VALID,0,VALID,94.798,VALID,0,VALID,23.6817,VALID,126,VALID,0.416406,
2009-05-20, 01:45:05,VALID,999.788,VALID,0,VALID,94.8591,VALID,0,VALID,23.6817,VALID,126,VALID,0.5125,
2009-05-20, 01:46:05,VALID,999.741,VALID,0,VALID,94.8896,VALID,0,VALID,23.7012,VALID,115,VALID,0.814844,
2009-05-20, 01:47:05,VALID,999.784,VALID,0,VALID,94.8667,VALID,0,VALID,23.742,VALID,100,VALID,0.730859,
2009-05-20, 01:48:05,VALID,999.766,VALID,0,VALID,94.8285,VALID,0,VALID,23.7012,VALID,98,VALID,0.474219,
2009-05-20, 01:49:05,VALID,999.771,VALID,0,VALID,94.8591,VALID,0,VALID,23.7012,VALID,100,VALID,0.220703,
2009-05-20, 01:50:05,VALID,999.764,VALID,0,VALID,94.8514,VALID,0,VALID,23.7012,VALID,174,VALID,0.579297,
2009-05-20, 01:51:05,VALID,999.752,VALID,0,VALID,94.8591,VALID,0,VALID,23.7207,VALID,159,VALID,0.189063,
2009-05-20, 01:52:05,VALID,999.738,VALID,0,VALID,94.8514,VALID,0,VALID,23.7012,VALID,159,VALID,0.251953,
2009-05-20, 01:53:05,VALID,999.705,VALID,0,VALID,94.8514,VALID,0,VALID,23.7012,VALID,159,VALID,0,
2009-05-20, 01:54:05,VALID,999.678,VALID,0,VALID,94.8438,VALID,0,VALID,23.6817,VALID,159,VALID,0,
2009-05-20, 01:55:05,VALID,999.677,VALID,0,VALID,94.8362,VALID,0,VALID,23.6817,VALID,159,VALID,0,
2009-05-20, 01:56:05,VALID,999.659,VALID,0,VALID,94.8438,VALID,0,VALID,23.703,VALID,159,VALID,0,
2009-05-20, 01:57:05,VALID,999.684,VALID,0,VALID,94.8438,VALID,0,VALID,23.6817,VALID,159,VALID,0,
2009-05-20, 01:58:05,VALID,999.667,VALID,0,VALID,94.8438,VALID,0,VALID,23.6817,VALID,159,VALID,1.14883,
2009-05-20, 01:59:05,VALID,999.677,VALID,0,VALID,94.8591,VALID,0,VALID,23.6622,VALID,156,VALID,0.884766,
2009-05-20, 02:00:05,VALID,999.663,VALID,0,VALID,94.8514,VALID,0,VALID,23.6817,VALID,156,VALID,0.585547,
2009-05-20, 02:01:05,VALID,999.668,VALID,0,VALID,94.8743,VALID,0,VALID,23.6622,VALID,152,VALID,0.446484,
2009-05-20, 02:02:05,VALID,999.641,VALID,0,VALID,94.882,VALID,0,VALID,23.6817,VALID,123,VALID,0.391406,
2009-05-20, 02:03:05,VALID,999.649,VALID,0.5,VALID,94.882,VALID,0,VALID,23.6817,VALID,124,VALID,0.526953,
2009-05-20, 02:04:05,VALID,999.615,VALID,0,VALID,94.8667,VALID,0,VALID,23.6817,VALID,99,VALID,0.587891,
2009-05-20, 02:05:05,VALID,999.598,VALID,0,VALID,94.8667,VALID,0,VALID,23.6622,VALID,67,VALID,0.397656,
2009-05-20, 02:06:05,VALID,999.596,VALID,0,VALID,94.8514,VALID,0,VALID,23.6622,VALID,67,VALID,0.264844,
2009-05-20, 02:07:05,VALID,999.604,VALID,0,VALID,94.8438,VALID,0,VALID,23.6622,VALID,67,VALID,0.160938,
2009-05-20, 02:08:05,VALID,999.593,VALID,0,VALID,94.8667,VALID,0,VALID,23.6622,VALID,67,VALID,0.141406,
2009-05-20, 02:09:05,VALID,999.575,VALID,0,VALID,94.8743,VALID,0,VALID,23.6835,VALID,134,VALID,0.398438,
2009-05-20, 02:10:05,VALID,999.581,VALID,0,VALID,94.8514,VALID,0,VALID,23.6622,VALID,149,VALID,0.158594,
2009-05-20, 02:11:05,VALID,999.604,VALID,0,VALID,94.8667,VALID,0,VALID,23.6427,VALID,149,VALID,0.0582031,
2009-05-20, 02:12:05,VALID,999.64,VALID,0,VALID,94.8438,VALID,0,VALID,23.6427,VALID,149,VALID,0.177344,
2009-05-20, 02:13:05,VALID,999.594,VALID,0,VALID,94.8667,VALID,0,VALID,23.6427,VALID,149,VALID,0.174219,
2009-05-20, 02:14:05,VALID,999.596,VALID,0,VALID,94.8667,VALID,0,VALID,23.6427,VALID,149,VALID,0.262109,
2009-05-20, 02:15:05,VALID,999.586,VALID,0,VALID,94.8896,VALID,0,VALID,23.664,VALID,106,VALID,0.602734,
2009-05-20, 02:16:05,VALID,999.584,VALID,0,VALID,94.882,VALID,0,VALID,23.6232,VALID,102,VALID,0.583984,
2009-05-20, 02:17:05,VALID,999.562,VALID,0,VALID,94.8743,VALID,0,VALID,23.6427,VALID,98,VALID,0.637109,
2009-05-20, 02:18:05,VALID,999.567,VALID,0,VALID,94.8743,VALID,0,VALID,23.6232,VALID,92,VALID,0.704687,
2009-05-20, 02:19:05,VALID,999.506,VALID,0,VALID,94.8514,VALID,0,VALID,23.6427,VALID,92,VALID,0.775,
2009-05-20, 02:20:05,VALID,999.516,VALID,0,VALID,94.8591,VALID,0,VALID,23.6427,VALID,92,VALID,0.771094,
2009-05-20, 02:21:05,VALID,999.499,VALID,0,VALID,94.8591,VALID,0,VALID,23.6232,VALID,92,VALID,0.676562,
2009-05-20, 02:22:05,VALID,999.486,VALID,0,VALID,94.8438,VALID,0,VALID,23.6232,VALID,92,VALID,0.659375,
2009-05-20, 02:23:05,VALID,999.472,VALID,0,VALID,94.8438,VALID,0,VALID,23.6232,VALID,92,VALID,0.411328,
2009-05-20, 02:24:05,VALID,999.486,VALID,0,VALID,94.8514,VALID,0.112286,VALID,23.6214,VALID,92,VALID,0.475,
2009-05-20, 02:25:05,VALID,999.457,VALID,0,VALID,94.8438,VALID,0.112286,VALID,23.6409,VALID,92,VALID,0.135547,
2009-05-20, 02:26:05,VALID,999.438,VALID,0,VALID,94.8362,VALID,0,VALID,23.6427,VALID,92,VALID,0.0824219,
2009-05-20, 02:27:05,VALID,999.44,VALID,0,VALID,94.8438,VALID,0,VALID,23.6409,VALID,100,VALID,0.348437,
2009-05-20, 02:28:05,VALID,999.399,VALID,0,VALID,94.882,VALID,0,VALID,23.6817,VALID,139,VALID,0.620703,
2009-05-20, 02:29:05,VALID,999.357,VALID,0,VALID,94.8972,VALID,0.112286,VALID,23.7012,VALID,140,VALID,0.800391,
2009-05-20, 02:30:05,VALID,999.369,VALID,0,VALID,94.9277,VALID,0,VALID,23.6994,VALID,145,VALID,0.732813,
2009-05-20, 02:31:05,VALID,999.344,VALID,0,VALID,94.9048,VALID,0.112286,VALID,23.6994,VALID,163,VALID,0.989453,
2009-05-20, 02:32:05,VALID,999.373,VALID,0,VALID,94.9048,VALID,0.112286,VALID,23.7189,VALID,167,VALID,0.501562,
2009-05-20, 02:33:05,VALID,999.378,VALID,0,VALID,94.8972,VALID,0.112286,VALID,23.7189,VALID,174,VALID,0.661719,
2009-05-20, 02:34:05,VALID,999.391,VALID,0,VALID,94.8896,VALID,0,VALID,23.7384,VALID,174,VALID,0.326172,
2009-05-20, 02:35:05,VALID,999.39,VALID,0,VALID,94.9201,VALID,0.112286,VALID,23.7384,VALID,174,VALID,0.302734,
2009-05-20, 02:36:05,VALID,999.418,VALID,0,VALID,94.8972,VALID,0.112286,VALID,23.7579,VALID,174,VALID,0.223828,
2009-05-20, 02:37:05,VALID,999.453,VALID,0,VALID,94.882,VALID,0,VALID,23.7579,VALID,174,VALID,0.378125,
2009-05-20, 02:38:05,VALID,999.432,VALID,0,VALID,94.8743,VALID,0,VALID,23.7579,VALID,174,VALID,0.134766,
2009-05-20, 02:39:05,VALID,999.448,VALID,0,VALID,94.9048,VALID,0,VALID,23.7402,VALID,174,VALID,0.183984,
2009-05-20, 02:40:05,VALID,999.478,VALID,0,VALID,94.9277,VALID,0,VALID,23.7793,VALID,174,VALID,0.0984375,
2009-05-20, 02:41:05,VALID,999.465,VALID,0,VALID,94.9277,VALID,0,VALID,23.7793,VALID,174,VALID,0.147656,
2009-05-20, 02:42:05,VALID,999.435,VALID,0,VALID,94.9201,VALID,0,VALID,23.7988,VALID,173,VALID,0.309375,
2009-05-20, 02:43:05,VALID,999.448,VALID,0,VALID,94.882,VALID,0.112286,VALID,23.797,VALID,140,VALID,0.484375,
2009-05-20, 02:44:05,VALID,999.438,VALID,0,VALID,94.882,VALID,0,VALID,23.7793,VALID,91,VALID,0.677734,
2009-05-20, 02:45:05,VALID,999.454,VALID,0,VALID,94.8896,VALID,0,VALID,23.7793,VALID,80,VALID,0.340234,
2009-05-20, 02:46:05,VALID,999.439,VALID,0,VALID,94.882,VALID,0,VALID,23.7597,VALID,80,VALID,0.391797,
2009-05-20, 02:47:05,VALID,999.475,VALID,0,VALID,94.9048,VALID,0,VALID,23.7597,VALID,80,VALID,0,
2009-05-20, 02:48:05,VALID,999.45,VALID,0,VALID,94.9048,VALID,0,VALID,23.7597,VALID,80,VALID,0,
2009-05-20, 02:49:05,VALID,999.465,VALID,0,VALID,94.8743,VALID,0,VALID,23.7793,VALID,64,VALID,0.685547,
2009-05-20, 02:50:05,VALID,999.495,VALID,0,VALID,94.8667,VALID,0,VALID,23.7597,VALID,61,VALID,1.10234,
2009-05-20, 02:51:05,VALID,999.466,VALID,0,VALID,94.8743,VALID,0,VALID,23.7402,VALID,61,VALID,1.03711,
2009-05-20, 02:52:05,VALID,999.505,VALID,0,VALID,94.8667,VALID,0,VALID,23.7402,VALID,65,VALID,0.734766,
2009-05-20, 02:53:05,VALID,999.487,VALID,0,VALID,94.882,VALID,0,VALID,23.7402,VALID,56,VALID,0.640625,
2009-05-20, 02:54:05,VALID,999.516,VALID,0,VALID,94.8514,VALID,0,VALID,23.7597,VALID,45,VALID,0.865234,
2009-05-20, 02:55:05,VALID,999.497,VALID,0,VALID,94.8591,VALID,0,VALID,23.7597,VALID,24,VALID,0.617188,
2009-05-20, 02:56:05,VALID,999.495,VALID,0,VALID,94.8743,VALID,0,VALID,23.7793,VALID,20,VALID,0.5625,
2009-05-20, 02:57:05,VALID,999.488,VALID,0,VALID,94.8896,VALID,0,VALID,23.7793,VALID,359,VALID,0.858594,
2009-05-20, 02:58:05,VALID,999.472,VALID,0,VALID,94.8743,VALID,0,VALID,23.7793,VALID,360,VALID,0.892578,
2009-05-20, 02:59:05,VALID,999.438,VALID,0,VALID,94.882,VALID,0,VALID,23.7597,VALID,24,VALID,1.04141,
2009-05-20, 03:00:05,VALID,999.45,VALID,0,VALID,94.882,VALID,0,VALID,23.7988,VALID,24,VALID,1.22656,
2009-05-20, 03:01:05,VALID,999.455,VALID,0,VALID,94.8438,VALID,0,VALID,23.7793,VALID,37,VALID,0.984375,
2009-05-20, 03:02:05,VALID,999.427,VALID,0,VALID,94.8362,VALID,0,VALID,23.7597,VALID,38,VALID,1.04727,
2009-05-20, 03:03:05,VALID,999.438,VALID,0,VALID,94.8285,VALID,0,VALID,23.7793,VALID,35,VALID,1.02539,
2009-05-20, 03:04:05,VALID,999.429,VALID,0,VALID,94.7751,VALID,0,VALID,23.7597,VALID,32,VALID,1.18164,
2009-05-20, 03:05:05,VALID,999.427,VALID,0,VALID,94.7675,VALID,0,VALID,23.7402,VALID,32,VALID,1.32656,
2009-05-20, 03:06:05,VALID,999.445,VALID,0,VALID,94.8057,VALID,0,VALID,23.7597,VALID,39,VALID,1.18789,
2009-05-20, 03:07:05,VALID,999.427,VALID,0,VALID,94.7904,VALID,0,VALID,23.7793,VALID,37,VALID,0.975781,
2009-05-20, 03:08:05,VALID,999.43,VALID,0,VALID,94.7904,VALID,0,VALID,23.7597,VALID,69,VALID,0.994141,
2009-05-20, 03:09:05,VALID,999.433,VALID,0,VALID,94.7523,VALID,0,VALID,23.7793,VALID,64,VALID,1.52148,
2009-05-20, 03:10:05,VALID,999.459,VALID,0,VALID,94.7675,VALID,0,VALID,23.7811,VALID,65,VALID,1.56328,
2009-05-20, 03:11:05,VALID,999.453,VALID,0,VALID,94.7599,VALID,0,VALID,23.7597,VALID,64,VALID,1.50312,
2009-05-20, 03:12:05,VALID,999.483,VALID,0,VALID,94.6988,VALID,0,VALID,23.7402,VALID,55,VALID,1.63125,
2009-05-20, 03:13:05,VALID,999.503,VALID,0,VALID,94.6912,VALID,0,VALID,23.7402,VALID,50,VALID,1.46602,
2009-05-20, 03:14:05,VALID,999.525,VALID,0,VALID,94.6912,VALID,0,VALID,23.7597,VALID,48,VALID,1.46953,
2009-05-20, 03:15:05,VALID,999.509,VALID,0,VALID,94.6912,VALID,0,VALID,23.7597,VALID,51,VALID,1.43203,
2009-05-20, 03:16:05,VALID,999.554,VALID,0,VALID,94.6912,VALID,0,VALID,23.7597,VALID,59,VALID,1.28164,
2009-05-20, 03:17:05,VALID,999.562,VALID,0,VALID,94.6531,VALID,0,VALID,23.7597,VALID,60,VALID,1.21328,
2009-05-20, 03:18:05,VALID,999.544,VALID,0,VALID,94.6607,VALID,0,VALID,23.7597,VALID,68,VALID,0.906641,
2009-05-20, 03:19:05,VALID,999.56,VALID,0,VALID,94.6378,VALID,0,VALID,23.7597,VALID,56,VALID,0.925391,
2009-05-20, 03:20:05,VALID,999.559,VALID,0,VALID,94.6226,VALID,0,VALID,23.7597,VALID,65,VALID,1.14141,
2009-05-20, 03:21:05,VALID,999.553,VALID,0,VALID,94.5768,VALID,0,VALID,23.7597,VALID,66,VALID,1.76523,
2009-05-20, 03:22:05,VALID,999.579,VALID,0,VALID,94.5768,VALID,0,VALID,23.7402,VALID,66,VALID,1.83438,
2009-05-20, 03:23:05,VALID,999.601,VALID,0,VALID,94.5386,VALID,0,VALID,23.7597,VALID,63,VALID,1.61758,
2009-05-20, 03:24:05,VALID,999.626,VALID,0,VALID,94.5691,VALID,0,VALID,23.7793,VALID,55,VALID,1.40625,
2009-05-20, 03:25:05,VALID,999.639,VALID,0,VALID,94.5691,VALID,0,VALID,23.7793,VALID,62,VALID,1.34648,
2009-05-20, 03:26:05,VALID,999.642,VALID,0,VALID,94.5234,VALID,0,VALID,23.7793,VALID,72,VALID,1.58984,
2009-05-20, 03:27:05,VALID,999.685,VALID,0,VALID,94.5157,VALID,0,VALID,23.7793,VALID,65,VALID,1.67344,
2009-05-20, 03:28:05,VALID,999.675,VALID,0,VALID,94.47,VALID,0,VALID,23.7793,VALID,57,VALID,1.33008,
2009-05-20, 03:29:05,VALID,999.699,VALID,0,VALID,94.4852,VALID,0,VALID,23.7811,VALID,63,VALID,1.25937,
2009-05-20, 03:30:05,VALID,999.716,VALID,0,VALID,94.3937,VALID,0,VALID,23.7793,VALID,67,VALID,1.43398,
2009-05-20, 03:31:05,VALID,999.725,VALID,0,VALID,94.3631,VALID,0,VALID,23.7597,VALID,62,VALID,1.21992,
2009-05-20, 03:32:05,VALID,999.711,VALID,0,VALID,94.3708,VALID,0,VALID,23.7793,VALID,53,VALID,0.881641,
2009-05-20, 03:33:05,VALID,999.728,VALID,0,VALID,94.3708,VALID,0,VALID,23.7793,VALID,55,VALID,1.16172,
2009-05-20, 03:34:05,VALID,999.76,VALID,0,VALID,94.386,VALID,0,VALID,23.8006,VALID,39,VALID,0.765625,
2009-05-20, 03:35:05,VALID,999.755,VALID,0,VALID,94.386,VALID,0,VALID,23.7793,VALID,19,VALID,1,
2009-05-20, 03:36:05,VALID,999.766,VALID,0,VALID,94.4089,VALID,0,VALID,23.7597,VALID,14,VALID,1.31055,
2009-05-20, 03:37:05,VALID,999.756,VALID,0,VALID,94.4547,VALID,0,VALID,23.7793,VALID,9,VALID,1.0918,
2009-05-20, 03:38:05,VALID,999.772,VALID,0,VALID,94.4623,VALID,0,VALID,23.7597,VALID,10,VALID,0.93125,
2009-05-20, 03:39:05,VALID,999.749,VALID,0,VALID,94.4776,VALID,0,VALID,23.7793,VALID,29,VALID,0.746094,
2009-05-20, 03:40:05,VALID,999.748,VALID,0,VALID,94.4928,VALID,0,VALID,23.7597,VALID,49,VALID,0.90625,
2009-05-20, 03:41:05,VALID,999.756,VALID,0,VALID,94.5386,VALID,0,VALID,23.8006,VALID,53,VALID,1.11875,
2009-05-20, 03:42:05,VALID,999.784,VALID,0,VALID,94.5462,VALID,0,VALID,23.7793,VALID,47,VALID,1.35898,
2009-05-20, 03:43:05,VALID,999.792,VALID,0,VALID,94.531,VALID,0,VALID,23.7793,VALID,43,VALID,0.83125,
2009-05-20, 03:44:05,VALID,999.773,VALID,0,VALID,94.5615,VALID,0,VALID,23.7793,VALID,56,VALID,0.848828,
2009-05-20, 03:45:05,VALID,999.801,VALID,0,VALID,94.592,VALID,0,VALID,23.7793,VALID,66,VALID,0.877734,
2009-05-20, 03:46:05,VALID,999.814,VALID,0,VALID,94.5844,VALID,0,VALID,23.8006,VALID,86,VALID,0.775,